Location: Le Domaine
(47.0333°N, 76.5361°W)
Time: 22:59:11
(UTC-05:00)

S-56A Canister/Altair - Pass Details

Date: 26 November 2019
Orbit: 633 x 2499 km, 38.9° (Epoch: 06 December)

Event Time Altitude Azimuth Distance (km) Brightness Sun altitude
Rises 18:35:50 0° 271° (W) 5,239 13.2 -22.3°
Reaches altitude 10° 18:39:57 10° 265° (W) 3,936 12.3 -23.0°
Maximum altitude 18:48:43 39° 202° (SSW) 1,766 9.5 -24.5°
Enters shadow 18:52:28 23° 149° (SSE) 2,096 9.5 -25.1°
Drops below altitude 10° 18:54:44 10° 135° (SE) 2,695 - -25.5°
Sets 18:57:04 0° 127° (SE) 3,452 - -25.9°
